Theta_e
309 318 325 329 334 330 335 335 336 337 337 335 334 334 333 332 332 333 336 338 336 336 342 325 314 315 315 314 315 315 315 316 317 316 316 316 316 316 315 317 324 328 330 332 334 334 333 333 332
319 321 327 334 331 334 334 335 337 338 337 336 335 334 334 333 332 332 335 339 337 336 343 338 317 316 317 316 316 317 316 317 318 318 318 318 320 320 320 321 327 333 333 333 334 335 336 335 334
324 323 332 333 334 335 338 340 339 337 336 333 333 332 331 332 333 332 339 339 337 335 344 340 324 317 318 318 317 318 317 318 319 319 320 321 322 324 326 329 332 334 335 335 335 334 337 338 336
322 327 332 338 337 336 337 339 337 337 336 333 331 331 332 331 331 332 336 338 336 335 341 341 336 318 318 319 319 319 318 318 320 320 321 322 324 325 327 331 333 335 336 337 336 335 336 337 336
325 331 333 333 331 332 335 335 339 339 336 334 332 332 332 332 332 333 335 337 337 336 336 343 338 323 319 321 320 320 319 319 320 322 323 325 326 328 329 335 337 338 338 338 336 336 336 336 335
330 331 337 334 331 330 331 332 332 333 334 333 332 332 332 331 331 332 334 336 336 336 336 338 339 334 320 321 322 321 320 320 321 323 324 327 328 330 335 339 338 338 338 337 337 335 336 336 334
330 335 335 333 331 330 331 332 332 331 332 332 332 332 332 333 333 332 332 334 335 336 336 337 347 341 332 322 323 323 321 321 321 323 325 327 326 331 338 337 337 335 333 332 332 334 335 334 335
329 332 333 334 333 331 332 332 331 331 331 332 332 332 332 333 332 330 330 332 333 335 336 337 340 348 345 340 333 325 323 322 322 324 326 327 327 333 332 330 327 326 328 327 327 330 332 333 334
327 331 333 333 333 332 331 331 331 331 332 331 331 332 332 330 331 331 331 331 332 334 335 336 337 342 344 339 340 331 327 324 325 329 330 330 334 334 336 334 332 329 327 324 327 328 330 331 332
327 332 333 332 332 332 332 332 332 332 332 331 331 331 331 331 331 332 331 329 331 332 335 336 337 339 343 339 337 344 340 339 339 337 336 339 336 334 334 334 331 328 327 323 323 324 328 330 329
329 331 333 333 332 332 333 333 332 332 333 331 331 331 332 331 331 331 329 329 330 332 334 336 339 339 341 340 337 344 342 340 339 339 338 337 334 333 335 334 333 332 332 331 330 331 331 330 329
331 331 332 332 332 332 332 331 332 332 332 331 330 331 332 331 331 331 330 330 330 333 333 336 338 341 343 340 337 339 342 339 338 339 339 337 334 335 335 333 333 332 331 331 329 328 328 331 330
328 329 330 331 331 331 331 331 332 332 331 331 330 331 331 331 329 328 328 329 330 334 333 334 338 343 345 344 338 339 339 338 338 336 336 335 334 335 334 334 333 332 331 330 329 329 330 331 331
327 327 327 328 328 330 331 331 331 331 331 330 330 331 331 330 328 328 328 329 329 333 334 334 339 342 345 345 343 341 340 337 336 334 332 334 336 335 334 334 333 331 331 331 331 329 329 329 329
328 329 329 329 328 328 328 330 331 330 330 330 330 330 330 329 328 329 327 329 330 332 334 336 339 342 345 347 344 342 340 337 335 334 332 334 336 336 335 333 334 333 331 333 332 331 330 329 328
328 329 331 329 328 328 329 331 330 330 330 330 329 329 328 328 328 328 328 328 331 332 335 336 338 343 347 347 345 342 338 337 333 331 333 336 336 336 335 334 335 333 334 333 330 331 330 328 327
329 331 330 329 329 329 330 331 330 329 329 330 330 329 328 329 329 329 328 328 330 332 335 337 339 341 347 347 345 342 338 335 331 331 333 334 335 335 334 334 335 335 334 333 331 330 330 329 328
327 329 328 329 328 329 330 331 330 328 328 328 329 329 329 328 329 329 328 328 329 333 335 338 340 342 347 347 344 340 336 334 331 332 333 334 335 334 335 335 335 334 333 332 331 330 330 329 329
325 326 327 327 328 328 328 329 329 328 328 328 329 330 330 328 329 329 328 332 334 334 337 340 340 342 347 345 341 336 334 333 332 332 333 335 335 333 334 335 334 332 332 332 330 330 328 329 329
322 324 326 327 328 329 329 329 329 329 329 328 328 329 329 328 329 329 329 336 335 336 337 338 340 343 345 342 338 333 332 332 332 332 334 335 334 334 333 334 334 333 333 331 329 329 329 329 329
323 324 325 326 327 328 329 329 329 328 328 327 327 327 328 329 329 330 330 337 336 337 337 338 340 343 341 337 334 332 332 334 334 331 333 335 334 333 333 333 332 332 331 329 329 329 329 329 329
322 323 324 325 327 328 327 331 328 328 327 327 327 327 328 328 329 330 330 338 337 337 338 339 341 340 336 333 334 335 333 331 331 333 331 334 332 332 331 331 331 331 330 330 330 329 328 327 329
321 322 324 325 325 326 325 327 326 326 327 327 327 327 328 328 329 329 334 337 336 337 338 339 339 337 335 335 333 333 330 330 332 331 333 334 333 332 331 330 330 330 330 330 330 329 329 330 330
319 321 323 325 325 327 325 326 327 326 326 327 328 328 328 329 330 332 337 336 336 336 338 338 337 336 336 334 334 334 333 332 331 332 333 333 333 333 332 329 330 330 331 330 329 330 329 331 332
320 323 325 327 328 329 325 326 326 326 326 327 328 328 328 332 335 337 337 337 336 336 337 337 336 336 334 333 334 334 334 335 335 334 332 333 332 333 331 330 331 331 331 331 330 329 330 331 332
320 323 325 329 328 326 325 326 326 326 327 326 327 327 334 336 336 337 336 337 336 336 335 335 335 335 333 333 333 333 334 333 332 333 332 331 333 332 330 331 331 332 331 331 330 330 330 330 331
320 323 323 326 326 328 327 326 327 328 329 327 328 327 334 337 337 337 337 337 335 335 334 334 334 333 333 332 333 333 334 333 334 334 332 331 332 330 330 331 332 331 331 332 332 332 331 331 332
320 321 323 327 328 328 327 328 326 329 328 327 329 329 332 337 337 337 337 336 334 334 333 334 333 333 332 332 332 333 333 333 333 333 332 330 331 329 330 331 332 332 332 333 332 334 333 333 333
319 321 322 324 325 327 328 326 326 329 329 328 328 331 336 337 337 336 336 335 334 334 334 334 333 331 331 332 331 332 332 333 332 332 330 331 329 328 329 329 330 330 333 332 333 333 332 332 333
319 321 323 326 327 324 325 327 328 327 329 332 332 335 337 336 336 335 335 335 334 334 334 334 331 330 331 331 331 331 332 333 333 331 330 330 329 328 328 329 328 329 332 332 331 331 331 332 332
Wind_Speed
10 10 9 8 7 7 14 10 10 6 9 1 3 7 12 12 9 5 7 5 9 19 24 30 29 27 24 21 19 16 14 11 9 7 6 5 5 5 4 5 5 4 4 3 3 4 5 6 6
12 10 8 8 8 13 14 12 9 8 8 6 8 8 12 8 8 5 6 8 10 19 22 27 30 28 25 22 20 17 15 12 10 8 7 6 6 6 6 6 6 6 5 5 6 6 6 7 7
10 13 8 6 13 14 6 2 11 8 3 5 5 1 8 5 7 6 8 6 12 19 21 26 30 30 25 23 21 18 16 14 12 10 9 9 9 9 8 8 8 9 8 8 8 9 10 9 8
13 9 8 10 17 15 11 4 2 4 7 5 7 10 0 9 3 8 4 7 12 16 19 23 28 30 27 25 23 19 16 14 13 12 11 11 11 12 11 10 10 11 12 12 12 12 12 10 9
18 9 12 15 18 19 6 10 12 12 11 6 3 12 3 13 7 4 3 5 10 13 17 20 27 30 29 27 24 21 18 16 15 12 11 11 11 12 12 12 12 13 14 15 15 17 14 12 12
9 12 14 15 20 18 9 8 12 14 16 10 5 13 8 8 6 5 2 4 9 14 17 20 24 29 31 29 26 23 19 17 16 14 12 12 12 12 13 15 15 14 14 14 14 14 15 15 12
17 13 16 19 19 16 3 5 11 13 12 15 5 5 9 7 8 7 8 9 10 15 19 19 18 25 31 30 29 26 22 19 18 16 14 13 12 13 15 14 13 14 14 14 15 14 14 15 13
15 14 23 20 18 17 8 4 14 10 13 7 2 8 12 10 12 13 17 14 14 14 17 20 19 19 22 24 29 27 24 21 19 17 15 14 13 14 16 17 16 16 14 13 14 14 15 16 16
18 16 18 22 22 16 15 15 11 2 11 16 11 14 14 19 19 15 17 18 21 13 14 18 22 21 21 24 23 29 26 22 19 17 16 13 13 14 13 15 14 13 16 15 12 12 12 15 18
19 17 25 23 20 18 20 20 17 17 11 17 14 20 21 17 16 19 20 22 20 19 16 20 22 23 22 23 23 21 21 18 16 16 14 12 12 13 12 9 13 19 16 13 13 12 13 13 14
25 25 25 24 23 24 25 26 21 21 21 20 17 18 20 21 21 22 24 24 23 22 12 19 24 26 24 24 24 18 20 19 18 17 16 14 12 12 13 13 12 11 13 9 11 13 13 12 13
29 30 28 28 28 27 31 28 24 25 22 22 17 18 21 21 19 17 22 23 25 19 15 19 23 27 25 24 24 22 19 20 18 16 16 14 13 13 13 13 13 10 12 10 10 11 11 6 9
32 31 31 30 30 32 28 28 30 26 25 24 21 18 21 20 20 22 24 24 24 21 18 16 26 28 27 27 24 23 21 20 17 15 14 15 14 13 12 11 10 14 11 11 11 12 6 8 12
30 31 31 32 33 30 31 33 27 27 25 26 23 23 23 22 17 20 22 21 24 22 18 17 26 29 29 29 23 25 20 19 18 15 14 15 14 12 13 11 12 15 14 14 12 11 12 13 14
31 35 33 32 30 30 23 33 33 29 25 27 26 24 24 19 18 18 23 21 21 21 17 17 24 30 31 30 28 25 23 21 18 15 13 14 13 12 12 14 15 14 15 13 13 14 13 14 18
35 30 30 33 33 29 26 34 29 26 26 26 20 22 16 19 21 21 24 21 19 18 17 18 23 28 29 29 28 25 22 20 18 14 13 13 14 13 13 15 16 15 12 12 15 14 16 17 18
26 28 36 32 29 27 30 39 29 25 25 25 29 16 18 21 23 25 24 22 20 20 18 19 22 26 27 25 25 23 19 18 16 13 13 12 13 13 15 16 16 15 13 12 13 15 16 18 15
31 33 30 33 28 28 33 35 31 20 23 25 27 25 21 23 26 27 24 24 19 15 15 17 21 22 26 24 21 21 18 17 14 13 12 11 12 12 13 15 14 13 12 12 14 14 13 14 13
30 27 33 32 27 28 31 31 24 22 26 27 26 28 24 23 24 30 27 8 9 11 12 17 21 23 26 25 24 22 19 15 13 12 11 11 11 11 12 13 13 15 14 14 14 13 13 13 12
33 31 33 29 28 23 25 28 25 24 24 26 28 27 26 24 26 23 18 8 8 11 14 17 21 23 25 22 22 19 15 13 12 11 10 9 10 11 10 11 13 13 12 13 12 12 12 13 10
32 33 28 30 24 21 22 28 28 26 27 28 28 29 28 27 24 19 17 8 9 12 16 19 22 24 24 21 17 13 11 6 7 9 11 11 8 9 9 11 11 11 12 11 11 12 13 13 12
33 29 27 25 21 18 21 23 25 18 24 23 23 22 22 21 20 19 11 10 12 13 16 19 22 24 21 20 17 15 13 11 9 5 3 4 6 8 8 8 9 9 9 9 10 11 12 13 13
36 25 25 25 21 22 24 17 18 21 22 23 24 23 21 20 20 19 11 12 14 16 19 22 23 23 21 17 15 14 9 9 5 5 3 5 5 6 8 7 7 7 8 8 8 7 9 11 11
29 27 25 20 17 20 22 20 22 21 20 20 20 16 19 19 17 6 12 16 17 19 22 24 25 21 19 16 13 10 8 3 3 5 2 3 6 6 7 7 5 5 5 5 7 8 8 6 6
27 23 16 16 17 21 18 20 23 20 18 17 16 12 5 10 10 12 15 15 20 22 24 25 24 21 18 16 13 10 7 5 4 3 9 6 4 4 8 6 3 5 5 6 5 6 6 6 5
31 28 17 28 12 16 22 18 16 17 10 9 11 12 9 8 11 14 15 16 21 24 25 24 22 21 18 15 13 9 7 9 5 3 5 4 4 8 7 4 2 3 4 6 7 7 6 3 3
40 27 32 24 20 14 13 16 15 17 14 9 10 14 13 11 14 16 17 16 23 24 23 23 21 19 17 15 12 9 7 2 6 3 2 4 6 7 6 2 1 2 2 3 4 3 4 3 3
33 29 22 21 24 15 14 10 8 2 7 13 10 13 13 14 16 16 16 17 22 23 22 21 20 18 16 14 12 11 8 5 4 3 2 6 6 6 6 2 1 2 2 1 2 2 3 2 4
26 23 30 21 18 15 11 9 2 5 2 15 14 13 15 17 17 17 17 20 23 22 21 20 18 17 15 14 12 12 8 6 5 4 6 8 7 6 5 4 2 3 4 2 2 2 2 5 6
30 27 31 16 22 17 11 4 4 9 7 5 3 11 15 17 18 18 18 19 22 22 21 19 17 16 15 13 11 11 8 6 5 7 7 9 7 6 4 3 1 4 3 4 3 1 4 6 6
Wind_Direction
176 177 198 215 236 235 247 225 259 202 215 121 306 287 334 345 328 8 92 115 137 155 166 180 184 186 185 184 184 184 187 194 198 201 204 211 219 225 234 239 243 241 244 246 249 256 272 277 271
179 187 217 272 250 223 230 218 180 233 22 324 282 263 249 290 31 344 78 135 154 160 169 177 188 190 190 191 190 192 194 201 209 218 229 239 242 244 254 260 257 250 258 266 273 271 257 254 268
202 196 253 228 234 264 315 149 257 84 255 282 279 184 317 358 76 4 54 158 164 169 175 182 191 193 195 197 197 199 201 206 217 226 236 242 250 257 259 258 259 259 263 264 268 269 267 258 254
186 211 254 258 253 234 299 251 114 252 188 218 309 290 326 74 15 21 45 166 174 180 182 190 201 195 199 201 202 203 207 214 222 232 241 249 255 261 264 261 255 260 262 263 265 265 263 265 270
217 253 247 239 247 270 266 284 314 301 275 238 262 289 305 97 91 59 89 190 203 195 194 192 210 203 203 206 208 208 211 217 228 235 244 253 263 266 266 260 258 259 264 265 268 264 260 261 267
221 238 250 249 242 245 230 279 279 275 274 283 211 252 279 118 73 14 358 219 223 209 199 195 211 212 209 209 212 213 214 219 230 238 247 258 269 273 269 265 262 264 268 271 277 273 265 260 256
236 240 249 265 274 278 264 315 279 262 273 278 254 289 302 135 79 326 303 274 253 233 195 204 198 211 217 213 216 217 219 221 227 236 244 253 265 268 267 270 261 261 264 269 270 269 270 264 256
242 252 268 265 260 268 270 309 265 282 273 51 14 277 287 336 346 316 293 282 272 238 221 208 204 204 205 212 219 221 222 225 228 235 241 251 265 266 263 267 273 266 266 270 271 267 265 262 257
235 254 251 253 256 263 268 238 260 159 290 301 288 291 292 293 291 285 284 288 275 254 235 216 209 205 208 209 217 223 224 225 227 234 242 250 262 270 250 254 241 261 274 268 264 264 263 258 257
227 238 242 256 265 270 286 289 294 269 248 276 270 279 266 295 296 291 292 289 275 264 229 222 210 205 206 210 210 209 217 218 219 227 234 237 251 259 264 268 270 280 281 264 264 255 249 249 252
232 240 252 256 265 280 287 274 279 277 277 276 291 293 299 297 293 288 278 282 281 273 247 224 197 203 207 207 204 205 212 212 215 224 227 235 247 257 260 266 257 247 257 257 249 240 228 238 246
242 238 245 259 268 283 280 287 272 269 275 284 287 287 289 290 289 290 293 294 287 257 257 212 207 196 204 209 206 205 207 207 211 217 223 232 239 244 249 266 273 260 258 264 263 258 251 263 265
236 242 251 256 264 269 272 275 278 271 278 283 287 286 278 275 279 286 293 290 274 266 262 242 200 192 198 211 207 206 208 205 211 215 220 226 237 245 256 261 257 271 267 262 262 263 259 254 255
243 249 253 259 264 267 268 270 265 259 266 277 275 274 271 276 285 286 292 283 272 263 258 247 197 195 195 204 214 196 204 204 208 217 226 223 233 243 254 258 248 247 252 259 267 266 268 254 255
255 256 259 256 256 261 269 271 262 268 268 271 270 269 259 267 274 290 293 280 270 262 252 236 202 193 192 199 207 199 199 201 204 216 224 230 232 242 252 258 252 254 253 251 255 259 255 258 252
250 255 257 250 250 248 246 260 265 272 271 273 272 269 269 273 285 288 291 282 271 263 252 223 211 197 193 198 200 201 202 196 206 213 224 223 237 243 254 258 260 257 251 246 248 248 248 251 255
240 242 241 250 246 250 245 255 257 264 268 262 263 269 269 271 277 285 281 276 260 255 241 233 208 200 193 199 199 199 198 193 203 211 225 230 239 247 250 255 261 257 249 242 244 241 244 252 244
228 236 244 255 255 249 247 255 259 273 269 267 277 274 261 275 278 281 282 274 255 251 244 219 197 198 185 193 196 197 193 199 200 212 227 236 245 257 251 255 255 254 247 243 240 241 241 241 245
241 246 247 250 248 238 257 269 264 251 256 264 274 279 272 269 278 280 275 258 260 246 216 194 189 189 178 186 189 191 192 196 202 216 228 241 252 263 255 251 252 252 242 241 243 235 239 242 255
243 252 252 263 264 260 260 268 271 270 281 284 279 277 277 278 275 269 265 174 214 204 188 188 184 176 180 181 190 189 193 194 207 215 220 239 259 257 253 248 252 255 245 242 233 229 237 245 233
231 235 245 254 261 263 272 273 272 268 265 263 263 264 261 259 261 268 258 163 183 190 180 177 176 171 178 178 176 171 175 180 197 220 232 220 238 254 245 251 256 257 247 248 235 237 234 238 226
236 230 242 255 265 264 251 266 259 264 266 268 273 272 268 260 258 245 228 160 179 175 171 165 164 168 171 163 164 169 179 201 210 216 253 200 246 257 259 256 243 235 240 239 243 238 236 230 228
241 234 238 239 247 260 254 260 272 265 266 265 261 256 259 252 244 248 166 161 170 162 161 158 158 165 157 171 166 173 207 192 224 225 211 233 249 257 256 238 226 228 234 244 239 234 220 219 218
238 232 241 244 249 247 243 252 267 268 276 284 284 260 250 231 230 159 138 153 153 157 155 154 158 157 160 160 162 193 170 215 214 207 239 245 237 242 242 232 233 227 229 228 218 209 199 211 227
224 217 223 226 228 244 243 246 259 274 275 279 291 256 228 109 130 150 154 156 156 154 153 154 156 154 159 158 161 162 167 177 200 242 224 210 217 228 217 208 215 234 231 218 209 201 202 207 212
222 206 210 213 216 233 224 243 257 254 254 271 264 235 133 159 154 161 158 151 152 152 153 153 154 156 159 161 164 159 164 185 211 175 325 105 185 201 175 188 192 233 215 209 203 205 217 209 238
212 212 216 245 220 245 237 224 239 250 249 246 233 187 151 162 161 155 151 154 151 152 154 153 156 157 162 162 162 162 173 152 78 87 208 133 168 161 159 158 187 214 157 210 209 225 211 205 243
223 210 205 225 239 226 242 241 238 191 201 176 197 180 156 155 156 151 152 149 148 152 150 155 156 159 162 162 161 169 159 166 152 163 149 130 162 149 150 145 98 134 76 70 174 160 189 197 243
215 202 212 219 228 229 235 249 194 199 219 181 196 165 153 161 153 154 149 146 150 151 151 155 157 160 161 162 170 151 161 176 170 150 156 153 157 159 182 166 169 124 91 83 91 106 182 209 228
215 214 203 214 208 235 213 155 82 175 241 356 327 126 153 157 155 154 148 151 154 152 156 160 160 160 164 168 168 160 169 188 151 164 154 148 177 173 187 173 83 81 74 71 67 141 201 198 190